Simultaneous Nadir Overpasses (SNOs) Predictions

Prediction of SNOs between GOES-16 and AQUA Satellite Orbit:

Table of predicted SNOs for the next 14.0 days since TLE Epoch: 8/4/2018
Index Date Time (GOES-16) GOES-16 Lat,Lon AQUA Lat,Lon Distance(km) Time Diff (sec)
1 08/05/2018 06:24:28 -0.02, -75.24 -0.62, -72.58 303.46 80
2 08/05/2018 18:45:50 0.03, -75.25 -0.50, -77.76 285.68 80
3 08/07/2018 18:36:17 0.03, -75.27 0.11, -74.80 53.30 80
4 08/09/2018 18:24:05 0.04, -75.30 0.79, -71.85 392.46 80
5 08/10/2018 06:45:21 -0.04, -75.30 0.30, -77.01 193.67 80
6 08/12/2018 06:30:28 -0.04, -75.34 -0.32, -74.05 146.37 80
7 08/12/2018 18:51:51 0.05, -75.35 -0.79, -79.24 442.40 80
8 08/14/2018 06:18:15 -0.05, -75.38 -0.94, -71.09 487.31 80
9 08/14/2018 18:39:38 0.05, -75.39 -0.17, -76.28 101.24 80
10 08/16/2018 18:30:06 0.05, -75.44 0.52, -73.33 240.75 80
11 08/17/2018 06:51:22 -0.05, -75.45 0.57, -78.49 344.60 80




NCC Satellite Simultaneous Nadir Overpasses (SNOs) Prediction Service
